User: anonymous   Login
Location: Caltech
(34.1382°N, 118.1253°W)
Time: 14:39:36
(UTC-08:00)
Language:

Cosmos 2251 Rocket - Orbit

View from above orbital plane
View from above orbital plane
View from above satellite
View from above satellite

Ground track
Ground track

The orbit data is extracted from the following two-line orbital elements,

1 22676U 93036B   18052.54070976 -.00000021  00000-0  17275-5 0  9999
2 22676  74.0411  85.8232 0017784  49.1523 311.1167 14.33944442291089
Epoch (UTC): 21 February 2018 12:58:37
Eccentricity: 0.0017784
inclination: 74.0411°
perigee height: 766 km
apogee height: 791 km
right ascension of ascending node: 85.8232°
argument of perigee: 49.1523°
revolutions per day: 14.33944442
mean anomaly at epoch: 311.1167°
orbit number at epoch: 29108

The dashed part of the orbit path shows where the satellite is in the earth's shadow,  

DLR